• En España
  • Lista de países
  • Para 7 días
  • Temperatura del agua
  • Mapa Satelital
  • El tiempo en el mapa
  • Informadores
  • user-avatar
    Iniciar sesión

    Tiempo cada hora Potaniha

    Hoy, 17 Octubre, Miércoles

    Tiempo Temperatura Precipitaciones Viento Presión Humedad
    00:00 +7°C° 0 mm 4 mps 751 mmHg 89%
    01:00 +7°C° 0 mm 4 mps 751 mmHg 89%
    02:00 +7°C° 0 mm 4 mps 751 mmHg 89%
    03:00 +6°C° 0 mm 4 mps 751 mmHg 90%
    04:00 +6°C° 0 mm 4 mps 751 mmHg 91%
    05:00 +6°C° 0 mm 4 mps 750 mmHg 92%
    06:00 +6°C° 0 mm 5 mps 750 mmHg 93%
    07:00 +7°C° 0 mm 5 mps 751 mmHg 90%
    08:00 +7°C° 0 mm 5 mps 751 mmHg 87%
    09:00 +9°C° 0 mm 6 mps 751 mmHg 85%
    10:00 +9°C° 0 mm 6 mps 751 mmHg 82%
    11:00 +9°C° 0 mm 5 mps 752 mmHg 79%
    12:00 +9°C° 0 mm 5 mps 753 mmHg 76%
    13:00 +9°C° 0 mm 5 mps 753 mmHg 73%
    14:00 +9°C° 0 mm 5 mps 754 mmHg 70%
    15:00 +9°C° 0 mm 5 mps 755 mmHg 67%
    16:00 +7°C° 0 mm 4 mps 755 mmHg 71%
    17:00 +7°C° 0 mm 3 mps 756 mmHg 76%
    18:00 +5°C° 0 mm 3 mps 757 mmHg 80%
    19:00 +4°C° 0 mm 3 mps 757 mmHg 82%
    20:00 +5°C° 0 mm 2 mps 757 mmHg 84%
    21:00 +4°C° 0 mm 2 mps 757 mmHg 86%
    22:00 +4°C° 0 mm 2 mps 758 mmHg 87%
    23:00 +3°C° 0 mm 2 mps 758 mmHg 88%

    Mañana, 18 Octubre, Jueves

    Tiempo Temperatura Precipitaciones Viento Presión Humedad
    00:00 +3°C° 0 mm 2 mps 758 mmHg 89%
    01:00 +3°C° 0 mm 2 mps 758 mmHg 90%
    02:00 +3°C° 0 mm 2 mps 758 mmHg 90%
    03:00 +2°C° 0 mm 2 mps 758 mmHg 90%
    04:00 +2°C° 0 mm 2 mps 758 mmHg 90%
    05:00 +2°C° 0 mm 2 mps 758 mmHg 90%
    06:00 +2°C° 0 mm 2 mps 758 mmHg 90%
    07:00 +3°C° 0 mm 2 mps 758 mmHg 85%
    08:00 +4°C° 0 mm 2 mps 758 mmHg 81%
    09:00 +5°C° 0 mm 2 mps 758 mmHg 77%
    10:00 +6°C° 0 mm 2 mps 757 mmHg 73%
    11:00 +8°C° 0 mm 3 mps 757 mmHg 69%
    12:00 +9°C° 0 mm 3 mps 756 mmHg 65%
    13:00 +9°C° 0 mm 3 mps 756 mmHg 68%
    14:00 +9°C° 0 mm 3 mps 756 mmHg 70%
    15:00 +8°C° 0 mm 4 mps 755 mmHg 72%
    16:00 +7°C° 0 mm 4 mps 755 mmHg 77%
    17:00 +7°C° 0 mm 4 mps 754 mmHg 81%
    18:00 +7°C° 0 mm 3 mps 754 mmHg 86%
    19:00 +6°C° 0 mm 4 mps 753 mmHg 88%
    20:00 +6°C° 0 mm 4 mps 753 mmHg 90%
    21:00 +6°C° 0 mm 4 mps 753 mmHg 92%
    22:00 +7°C° 0 mm 3 mps 753 mmHg 93%
    23:00 +7°C° 0 mm 3 mps 752 mmHg 95%

    Pasado mañana, 19 Octubre, Viernes

    Tiempo Temperatura Precipitaciones Viento Presión Humedad
    00:00 +7°C° 0 mm 3 mps 752 mmHg 96%
    01:00 +7°C° 0 mm 3 mps 752 mmHg 96%
    02:00 +5°C° 0 mm 3 mps 752 mmHg 96%
    03:00 +5°C° 0 mm 3 mps 751 mmHg 96%
    04:00 +5°C° 0 mm 3 mps 751 mmHg 96%
    05:00 +5°C° 0 mm 3 mps 751 mmHg 96%
    06:00 +4°C° 0 mm 3 mps 750 mmHg 96%
    07:00 +5°C° 0 mm 3 mps 750 mmHg 94%
    08:00 +6°C° 0 mm 4 mps 750 mmHg 91%
    09:00 +7°C° 0 mm 4 mps 750 mmHg 88%
    10:00 +10°C° 0 mm 4 mps 750 mmHg 82%
    11:00 +11°C° 0 mm 4 mps 750 mmHg 76%
    12:00 +13°C° 0 mm 5 mps 749 mmHg 70%
    13:00 +13°C° 0 mm 4 mps 749 mmHg 70%
    14:00 +13°C° 0 mm 4 mps 749 mmHg 70%
    15:00 +14°C° 0 mm 4 mps 749 mmHg 70%
    16:00 +13°C° 0 mm 4 mps 748 mmHg 75%
    17:00 +12°C° 0 mm 4 mps 748 mmHg 81%
    18:00 +11°C° 0 mm 4 mps 748 mmHg 87%
    19:00 +11°C° 0 mm 4 mps 748 mmHg 89%
    20:00 +10°C° 0 mm 3 mps 748 mmHg 91%
    21:00 +10°C° 0 mm 3 mps 748 mmHg 93%
    22:00 +10°C° 0 mm 3 mps 748 mmHg 93%
    23:00 +10°C° 0 mm 3 mps 748 mmHg 94%

    20 Octubre, Sábado

    Tiempo Temperatura Precipitaciones Viento Presión Humedad
    00:00 +10°C° 0 mm 3 mps 748 mmHg 95%
    01:00 +10°C° 0.2 mm 3 mps 748 mmHg 95%
    02:00 +9°C° 0.2 mm 3 mps 748 mmHg 95%
    03:00 +9°C° 0.2 mm 3 mps 748 mmHg 95%
    04:00 +9°C° 0.6 mm 3 mps 748 mmHg 94%
    05:00 +8°C° 0.6 mm 3 mps 747 mmHg 93%
    06:00 +8°C° 0.6 mm 3 mps 747 mmHg 92%
    07:00 +8°C° 0.1 mm 3 mps 748 mmHg 88%
    08:00 +7°C° 0.1 mm 4 mps 748 mmHg 83%
    09:00 +7°C° 0.1 mm 4 mps 748 mmHg 79%
    10:00 +8°C° 0 mm 4 mps 748 mmHg 75%
    11:00 +8°C° 0 mm 4 mps 749 mmHg 71%
    12:00 +10°C° 0 mm 4 mps 749 mmHg 67%
    13:00 +8°C° 0 mm 4 mps 749 mmHg 67%
    14:00 +8°C° 0 mm 4 mps 749 mmHg 66%
    15:00 +8°C° 0 mm 4 mps 749 mmHg 66%
    16:00 +7°C° 0 mm 4 mps 750 mmHg 72%
    17:00 +7°C° 0 mm 3 mps 750 mmHg 77%
    18:00 +7°C° 0 mm 3 mps 750 mmHg 83%
    19:00 +5°C° 0 mm 3 mps 750 mmHg 85%
    20:00 +5°C° 0 mm 3 mps 751 mmHg 86%
    21:00 +5°C° 0 mm 3 mps 751 mmHg 88%
    22:00 +4°C° 0 mm 3 mps 751 mmHg 90%
    23:00 +4°C° 0 mm 3 mps 751 mmHg 91%

    21 Octubre, Domingo

    Tiempo Temperatura Precipitaciones Viento Presión Humedad
    00:00 +3°C° 0 mm 3 mps 751 mmHg 93%
    01:00 +3°C° 0 mm 3 mps 752 mmHg 93%
    02:00 +3°C° 0 mm 3 mps 752 mmHg 92%
    03:00 +3°C° 0 mm 3 mps 753 mmHg 92%
    04:00 +3°C° 0 mm 3 mps 753 mmHg 92%
    05:00 +2°C° 0 mm 3 mps 753 mmHg 92%
    06:00 +2°C° 0 mm 3 mps 754 mmHg 91%
    07:00 +3°C° 0 mm 3 mps 754 mmHg 87%
    08:00 +3°C° 0 mm 3 mps 754 mmHg 83%
    09:00 +3°C° 0 mm 3 mps 755 mmHg 79%
    10:00 +4°C° 0 mm 3 mps 755 mmHg 75%
    11:00 +5°C° 0 mm 3 mps 755 mmHg 70%
    12:00 +7°C° 0 mm 3 mps 756 mmHg 65%
    13:00 +7°C° 0 mm 3 mps 756 mmHg 66%
    14:00 +5°C° 0 mm 3 mps 756 mmHg 66%
    15:00 +5°C° 0 mm 3 mps 756 mmHg 66%
    16:00 +5°C° 0 mm 3 mps 757 mmHg 71%
    17:00 +4°C° 0 mm 3 mps 757 mmHg 75%
    18:00 +4°C° 0 mm 2 mps 757 mmHg 79%
    19:00 +3°C° 0 mm 2 mps 757 mmHg 82%
    20:00 +2°C° 0 mm 2 mps 758 mmHg 86%
    21:00 +2°C° 0 mm 2 mps 758 mmHg 89%
    22:00 +2°C° 0 mm 1 mps 758 mmHg 90%
    23:00 +2°C° 0 mm 1 mps 758 mmHg 91%

    22 Octubre, Lunes

    Tiempo Temperatura Precipitaciones Viento Presión Humedad
    00:00 +1°C° 0 mm 1 mps 758 mmHg 92%
    01:00 +1°C° 0 mm 1 mps 758 mmHg 92%
    02:00 +1°C° 0 mm 1 mps 758 mmHg 92%
    03:00 +1°C° 0 mm 1 mps 759 mmHg 92%
    04:00 +1°C° 0 mm 1 mps 759 mmHg 92%
    05:00 +1°C° 0 mm 1 mps 759 mmHg 93%
    06:00 -1°C° 0 mm 2 mps 759 mmHg 93%
    07:00 +1°C° 0 mm 2 mps 758 mmHg 88%
    08:00 +2°C° 0 mm 2 mps 758 mmHg 83%
    09:00 +2°C° 0 mm 3 mps 758 mmHg 79%
    10:00 +3°C° 0 mm 3 mps 758 mmHg 76%
    11:00 +4°C° 0 mm 4 mps 758 mmHg 72%
    12:00 +5°C° 0 mm 4 mps 757 mmHg 69%
    13:00 +5°C° 0 mm 4 mps 757 mmHg 70%
    14:00 +5°C° 0 mm 4 mps 756 mmHg 71%
    15:00 +5°C° 0 mm 4 mps 756 mmHg 72%
    16:00 +5°C° 0 mm 4 mps 755 mmHg 75%
    17:00 +3°C° 0 mm 5 mps 755 mmHg 78%
    18:00 +2°C° 0 mm 5 mps 754 mmHg 81%
    19:00 +2°C° 0 mm 5 mps 754 mmHg 81%
    20:00 +2°C° 0 mm 5 mps 754 mmHg 81%
    21:00 +2°C° 0 mm 5 mps 753 mmHg 82%
    22:00 +2°C° 0 mm 5 mps 753 mmHg 81%
    23:00 +2°C° 0 mm 6 mps 752 mmHg 80%
    Mostrar más